Regional Weather Roundup
Issued by NWS Sioux Falls, SD

Home | Current Version | Previous Version | Text Only | Print | Product List | Glossary On
Versions: 1 2 3 4 5 6 7 8 9 10 11 12 13 14 15 16 17 18 19 20 21 22 23 24 25 26 27 28 29 30 31 32 33 34 35 36 37 38 39 40 41 42 43 44 45 46 47 48 49 50
000
ASUS43 KFSD 291702
RWRFSD

WEATHER ROUNDUP FOR SE SOUTH DAKOTA/SW MINNESOTA/NW IOWA
NATIONAL WEATHER SERVICE SIOUX FALLS SD
1200 PM CDT TUE JUL 29 2014

NOTE: "FAIR" INDICATES FEW OR NO CLOUDS BELOW 12,000 FEET WITH NO
SIGNIFICANT WEATHER AND OR OBSTRUCTIONS TO VISIBILITY.


SDZ038>040-050-052>070-291800-
SOUTHEAST SOUTH DAKOTA

CITY           SKY/WX    TMP DP  RH WIND       PRES   REMARKS
CHAMBERLAIN    PTSUNNY   72  52  48 CALM      30.23S
HURON          MOSUNNY   73  54  51 E3        30.21F
MADISON        PTSUNNY   68  50  52 N5        30.23S
MITCHELL       MOSUNNY   73  53  49 CALM      30.23S
SIOUX FALLS    PTSUNNY   71  52  50 NW7       30.22F
WINNER         FAIR      76  53  44 CALM      30.23F
YANKTON        PTSUNNY   70  54  56 NW3       30.23
$$

MNZ071-072-080-081-089-090-097-098-291800-
SOUTHWEST MINNESOTA

CITY           SKY/WX    TMP DP  RH WIND       PRES   REMARKS
FAIRMONT       PTSUNNY   73  54  49 N6        30.18F
JACKSON        PTSUNNY   72  52  49 N7        30.21S
LUVERNE        MOSUNNY   72  50  46 N5        30.22S
MARSHALL       PTSUNNY   70  54  56 N9        30.19F
MONTEVIDEO     MOSUNNY   73  57  56 N9        30.19F
PIPESTONE      PTSUNNY   70  52  52 NW6       30.22S
REDWOOD FALLS  MOSUNNY   73  54  51 NW10G16   30.18S
TRACY          PTSUNNY   72  56  56 N9        30.21S
WINDOM         SUNNY     70  54  56 NW7       30.20F
WORTHINGTON    PTSUNNY   68  52  56 NW6       30.22F
$$

IAZ001>003-012>014-020>022-031-032-NEZ013-014-SDZ071-291800-
NORTHWEST IOWA

CITY           SKY/WX    TMP DP  RH WIND       PRES   REMARKS
CHEROKEE       MOSUNNY   70  55  59 N3        30.21S
DENISON        MOSUNNY   72  55  56 NW12      30.20S
ESTHERVILLE    MOSUNNY   71  55  56 N9        30.19F
LE MARS        MOSUNNY   72  55  56 VRB7      30.22F
ORANGE CITY    PTSUNNY   72  52  49 NW3       30.22F
SHELDON        PTSUNNY   70  54  56 N5        30.21S
SIOUX CITY     PTSUNNY   75  56  51 N7        30.22S
SPENCER        SUNNY     73  53  49 N9        30.21S
STORM LAKE     MOSUNNY   72  55  56 VRB5G13   30.22S
$$

ABBREVIATIONS USED IN REMARKS
   TC - TEMPERATURE IN CELSIUS
  WCI - WIND CHILL INDEX
   HX - HEAT INDEX
  VSB - VISIBILITY




USA.gov is the U.S. government's official web portal to all federal, state and local government web resources and services.